タイバー彗星

C/1997 N1 ( Tabur )

English version
Home page
Updated on November 10, 2002

---------------------------------------------------------------------

・ プロフィール

発見日 1997年7月2日
発見光度 10等
発見者 Vello Tabur (Wanniassa, Australian Capital Territory)

・ 軌道要素

   The following improved orbital elements by Kenji Muraoka,
  are from 68 observations 1997 July 3 to 30, perturbations 
  by 9 Planets, Moon and 5 minor planets were taken into account.
   The mean residual is +/- 0.82 arc seconds.

      Epoch  =  1997 Aug. 20.0  TT       JDT = 2450680.5
          T  =  1997 Aug. 15.47943       +/- 0.00058 (m.e.) TT
       Peri. =  344.19149                +/- 0.00402
       Node  =  147.61014                +/- 0.00275   (2000.0)
       Incl. =   85.96427                +/- 0.00313
          q  =    0.3956521              +/- 0.0000400 AU
          e  =    1.0000476              +/- 0.0000786
        1/a  =   -0.0001202              +/- 0.0001987 1/AU

・ 星図

・ 1997年 4月12日〜1997年 8月10日
・ 1997年 8月10日〜1998年10月14日

・ 光度変化

        m1 = 10.5 + 5 logΔ + 10.0 log r  [   ,-28]  (              〜1997年 7月18日)
        m1 =  8.0 + 5 logΔ - 18.0 log r  [-28,  0]  (1997年 7月18日〜1997年 8月15日)
        m1 = 21.5 + 5 logΔ + 15.0 log r  [  0,   ]  (1997年 8月15日〜              )

        ※ 灰色の曲線は、m1 = 10.5 + 5 logΔ + 10.0 log r の光度曲線です。

---------------------------------------------------------------------

軌道要素は村岡健治氏の計算によるものです。
星図は StellaNavigator Ver.2.0 for Windows (アストロアーツ 編著 / アスキー出版局刊) で作成したものです。
光度グラフはComet for Windowsで作成したものです。

---------------------------------------------------------------------

Copyright(C) Seiichi Yoshida (comet@aerith.net). All rights reserved.